TimeCDT,TemperatureF,Dew PointF,Humidity,Sea Level PressureIn,VisibilityMPH,Wind Direction,Wind SpeedMPH,Gust SpeedMPH,PrecipitationIn,Events,Conditions,WindDirDegrees,DateUTC
12:15 AM,37.4,26.6,65,29.98,10.0,WSW,9.2,-,N/A,,Clear,250,2013-03-19 05:15:00
12:55 AM,39.2,26.6,61,29.99,10.0,West,9.2,-,N/A,,Clear,270,2013-03-19 05:55:00
1:15 AM,39.2,26.6,61,30.00,10.0,West,8.1,-,N/A,,Clear,270,2013-03-19 06:15:00
1:35 AM,39.2,26.6,61,30.01,10.0,West,8.1,-,N/A,,Clear,270,2013-03-19 06:35:00
1:55 AM,39.2,24.8,56,30.02,10.0,WNW,8.1,-,N/A,,Clear,300,2013-03-19 06:55:00
2:15 AM,39.2,24.8,56,30.03,10.0,NW,9.2,-,N/A,,Clear,320,2013-03-19 07:15:00
2:35 AM,37.4,23.0,56,30.04,10.0,North,8.1,-,N/A,,Clear,350,2013-03-19 07:35:00
2:55 AM,35.6,21.2,56,30.05,10.0,NNW,5.8,-,N/A,,Clear,340,2013-03-19 07:55:00
3:15 AM,35.6,19.4,52,30.04,10.0,NNW,5.8,-,N/A,,Clear,340,2013-03-19 08:15:00
3:35 AM,35.6,19.4,52,30.04,10.0,NNW,4.6,-,N/A,,Clear,330,2013-03-19 08:35:00
3:55 AM,33.8,19.4,56,30.04,10.0,NW,3.5,-,N/A,,Clear,320,2013-03-19 08:55:00
4:15 AM,33.8,19.4,56,30.05,10.0,NW,3.5,-,N/A,,Clear,320,2013-03-19 09:15:00
4:35 AM,32.0,19.4,60,30.06,10.0,NW,3.5,-,N/A,,Clear,310,2013-03-19 09:35:00
4:55 AM,33.8,19.4,56,30.07,10.0,NW,5.8,-,N/A,,Clear,310,2013-03-19 09:55:00
5:15 AM,32.0,19.4,60,30.06,10.0,West,4.6,-,N/A,,Clear,260,2013-03-19 10:15:00
5:35 AM,33.8,17.6,52,30.06,10.0,WNW,10.4,-,N/A,,Clear,300,2013-03-19 10:35:00
5:55 AM,32.0,17.6,55,30.07,10.0,West,8.1,-,N/A,,Clear,280,2013-03-19 10:55:00
6:15 AM,30.2,15.8,55,30.09,10.0,West,5.8,-,N/A,,Clear,260,2013-03-19 11:15:00
6:35 AM,30.2,15.8,55,30.10,10.0,West,6.9,-,N/A,,Clear,260,2013-03-19 11:35:00
6:55 AM,30.2,15.8,55,30.10,10.0,West,5.8,-,N/A,,Clear,270,2013-03-19 11:55:00
7:15 AM,30.2,15.8,55,30.12,10.0,West,6.9,-,N/A,,Clear,260,2013-03-19 12:15:00
7:35 AM,32.0,15.8,51,30.11,10.0,West,4.6,-,N/A,,Clear,260,2013-03-19 12:35:00
8:15 AM,33.8,15.8,48,30.13,10.0,West,9.2,-,N/A,,Clear,270,2013-03-19 13:15:00
8:35 AM,33.8,15.8,48,30.13,10.0,WNW,12.7,-,N/A,,Clear,290,2013-03-19 13:35:00
9:15 AM,35.6,17.6,48,30.13,10.0,WNW,13.8,-,N/A,,Clear,290,2013-03-19 14:15:00
9:35 AM,37.4,19.4,48,30.14,10.0,WNW,17.3,20.7,N/A,,Clear,300,2013-03-19 14:35:00
9:55 AM,37.4,19.4,48,30.15,10.0,West,13.8,18.4,N/A,,Clear,280,2013-03-19 14:55:00